Regional Weather Roundup
Issued by NWS Northern Indiana

Home | Current Version | Previous Version | Text Only | Print | Product List | Glossary Off
Versions: 1 2 3 4 5 6 7 8 9 10 11 12 13 14 15 16 17 18 19 20 21 22 23 24 25 26 27 28 29 30 31 32 33 34 35 36 37 38 39 40 41 42 43 44 45 46 47 48 49 50

000
ASUS43 KIWX 200710
RWRIWX

KIWX WEATHER ROUNDUP
NATIONAL WEATHER SERVICE NORTHERN INDIANA
300 AM EDT SUN APR 20 2014

NOTE: "FAIR" INDICATES FEW OR NO CLOUDS BELOW 12,000 FEET WITH NO
SIGNIFICANT WEATHER AND/OR OBSTRUCTIONS TO VISIBILITY.

* THESE STATIONS ARE NOT UNDER NWS QUALITY CONTROL. THEY ALSO MAY NOT
  REPORT WEATHER SUCH AS PRECIPITATION OR FOG.

INZ001>027-200800-
NORTHERN INDIANA

CITY           SKY/WX    TMP DP  RH WIND       PRES   REMARKS
GARY*          CLEAR     51  29  41 SE9       30.25S
VALPARAISO     PTCLDY    41  27  57 E7        30.27F
MICHIGAN CITY* PTCLDY    45  23  42 SE7       30.27S
LAPORTE*       PTCLDY    40  27  57 SE3       30.28S
SOUTH BEND     NOT AVBL
GOSHEN         MOCLDY    41  30  65 E3        30.28F
MONTICELLO*    MOCLDY    46  28  48 E8        30.26F
LOGANSPORT*    MOCLDY    39  28  65 E8        30.28F
ROCHESTER*     MOCLDY    43  30  61 SE5       30.28F
WARSAW*        MOCLDY    41  28  60 E6        30.28F
ANGOLA*        CLEAR     39  30  70 E5        30.30F
FORT WAYNE     PTCLDY    38  29  70 E7        30.31S
HUNTINGTON*    FAIR      40  29  66 E6        30.29F
PERU/GRISSOM   PTCLDY    44  27  51 E6        30.27F
MARION*        PTCLDY    41  26  56 E7        30.29S

$$
INZ028>050-200800-
CENTRAL INDIANA

CITY           SKY/WX    TMP DP  RH WIND       PRES   REMARKS
LAFAYETTE      MOCLDY    45  34  65 E7        30.26S
KOKOMO*        PTCLDY    39  28  65 E7        30.28F
MUNCIE*        CLEAR     42  29  59 NE3       30.28S
INDIANAPOLIS   PTCLDY    48  33  56 NE9       30.26R

$$
MIZ043>046-050>051-056>058-064>065-071>073-077>080-200800-
SOUTHWEST LOWER MICHIGAN

CITY           SKY/WX    TMP DP  RH WIND       PRES   REMARKS
BATTLE CREEK   PTCLDY    43  28  55 SE6       30.30F
BENTON HARBOR  PTCLDY    44  28  53 SE9       30.27F
COLDWATER*     MOCLDY    39  30  68 SE7       30.29F
HILLSDALE*     MOCLDY    38  31  74 E3        30.30F
HOLLAND        MOCLDY    47  29  49 SE10      30.28F
GRAND RAPIDS   PTCLDY    44  28  53 S8        30.30S
KALAMAZOO      PTCLDY    43  29  57 CALM      30.30S
STURGIS*       MOCLDY    41  28  60 E5        30.29F
THREE RIVERS*  FAIR      43  29  59 SE5       30.30S

$$
OHZ001>008-015>018-024>025-200800-
NORTHWEST OHIO

CITY           SKY/WX    TMP DP  RH WIND       PRES   REMARKS
WAUSEON*       FAIR      36  32  87 NE6       30.31F
DEFIANCE       PTCLDY    38  30  73 NE3       30.32S
FINDLAY        CLEAR     39  29  67 NE7       30.30S
TOLEDO EXPRESS PTCLDY    36  31  82 CALM      30.32S
TOLEDO METCALF PTCLDY    41  32  70 NE6       30.33F
LIMA           CLEAR     39  31  72 NE6       30.29R

$$
&&



USA.gov is the U.S. government's official web portal to all federal, state and local government web resources and services.